PROBA-V

Last updated on July 6, 2021, 3:44 p.m. UTC

1 39159U 13021A   21187.14253390 -.00000014  00000-0  12103-4 0  9997
2 39159  98.4063 234.5698 0004796  37.4713 322.6799 14.23003446424079
UTC
Height (km)
Latitude
Longitude
Inclination
Orbital Period
UTC large
Height (km)
Speed (km/s)
/
Latitude / Longitude
Inclination (degrees)
Orbital Period (minutes)
Azimuth
Elevation
Range (km)
Doppler Factor
iOS Compass Heading
iOS Angle